[[{"header":{"parameterUnit":"m.s-1","parameterCategory":1,"la1":30.2991,"la2":30.254,"lo1":-89.0895,"lo2":-89.0444,"dy":0.0017,"dx":0.0017,"nx":28,"ny":28,"refTime":"2025-12-27T09:00:00:Z","depth":0,"parameterNumber":2,"parameterNumberName":"U-component_of_WINDS"},"data":[0,0,0,0,0,0,0,0,0,0,0,0,0,0,0,0,0,0,0,0,0,0,0,0,0,0,0,0,0,0,0,0,0,0,0,0,0,0,0,0,0,0,0,0,0,0,0,0,0,0,0,0,0,0,0,0,0,0,1.1597,1.1598,0,1.1617,1.1618,1.1618,1.1568,1.1566,1.1565,1.1563,1.1588,1.159,1.1592,0,0,0,0,0,0,0,0,0,0,0,0,0,1.152,1.1521,1.1597,1.1598,1.1598,1.1617,1.1618,1.1618,1.1568,1.1566,1.1564,1.1563,1.1587,1.1589,1.1592,0,0,0,0,0,0,0,0,0,0,0,0,0,1.1548,1.1522,1.1597,1.1575,1.1574,1.1617,1.1618,1.1618,1.1569,1.1566,1.1564,1.1562,1.1586,1.1589,1.1592,1.166,0,0,1.1602,1.1603,0,0,0,0,0,0,0,0,1.1546,1.1551,1.1578,1.1577,1.1575,1.1588,1.1599,1.1632,1.1569,1.1571,1.1563,1.1561,1.159,1.1593,1.1602,1.1661,1.1662,1.1602,1.1604,1.1606,1.1607,0,0,0,0,0,0,0,1.1545,1.155,1.1605,1.1579,1.1577,1.1566,1.1567,1.1605,1.1594,1.157,1.1567,1.157,1.1589,1.1599,1.1602,1.1662,1.1602,1.1605,1.1607,1.1608,1.1778,1.178,0,0,0,0,0,0,1.1545,1.1548,1.1605,1.1606,1.1554,1.1569,1.1571,1.1586,1.1593,1.1592,1.1572,1.1567,1.1594,1.1598,1.1603,1.1682,1.1606,1.1609,1.161,1.1775,1.1778,1.1781,0,0,0,0,0,0,1.1543,1.155,1.1604,1.1576,1.1582,1.1573,1.1591,1.1588,1.1598,1.1594,1.1592,1.1584,1.1593,1.1598,1.1646,1.1682,1.161,1.1613,1.1772,1.1776,1.178,1.1841,0,0,0,0,0,0,1.1541,1.155,1.1575,1.1577,1.1584,1.1646,1.1593,1.159,1.1603,1.1597,1.1605,1.1604,1.1591,1.1641,1.1649,1.1685,1.1615,1.1769,1.1774,1.1778,1.1836,1.1846,1.1856,0,0,0,0,0,1.1539,1.1592,1.1576,1.1583,1.1614,1.1648,1.1652,1.1635,1.1606,1.1631,1.1629,1.1604,1.1677,1.1646,1.1655,1.1692,1.1766,1.1772,1.1778,1.1831,1.1844,1.1855,0,0,0,0,0,0,1.1595,1.1592,1.1574,1.163,1.1639,1.1639,1.1671,1.165,1.1669,1.1663,1.1643,1.1645,1.1696,1.1699,1.1665,1.1758,1.1717,1.1725,1.1754,1.1767,1.1777,1.1775,1.1618,0,0,0,0,0,1.1614,1.164,1.1636,1.1686,1.1691,1.168,1.1694,1.1681,1.169,1.1695,1.1695,1.1707,1.1732,1.175,1.1773,1.1836,1.1837,1.1866,1.1876,1.1884,1.1891,1.1925,1.1938,1.18,1.18,1.18,0,0,1.1653,1.1654,1.1673,1.1697,1.1703,1.1732,1.1684,1.1717,1.1738,1.17,1.1744,1.1746,1.1757,1.1813,1.1837,1.1817,1.1929,1.1892,1.1898,1.1901,1.1932,1.1945,1.1957,1.1804,1.1803,1.1803,0,0,1.1739,1.1743,1.1784,1.1791,1.18,1.1792,1.1802,1.1806,1.1805,1.1849,1.1821,1.1847,1.1891,1.19,1.1911,1.2001,1.1979,1.2009,1.2062,1.2095,1.2106,1.2115,1.2148,1.216,1.2016,1.2016,1.2017,0,1.1787,1.1828,1.1808,1.1843,1.1855,1.182,1.1863,1.187,1.1887,1.1897,1.1873,1.1928,1.1933,1.1991,1.2013,1.2022,1.2034,1.2008,1.2106,1.2115,1.2124,1.2155,1.2167,1.202,1.202,1.2019,1.2019,0,1.1887,1.1917,1.1949,1.1965,1.1981,1.2019,1.2006,1.2024,1.2009,1.2005,1.2051,1.2056,1.2079,1.2092,1.2078,1.2148,1.2135,1.2109,1.2067,1.2141,1.217,1.2181,1.2025,1.2024,1.2023,1.2022,0,0,1.2009,1.2014,1.2026,1.2033,1.2041,1.2063,1.2101,1.2123,1.2139,1.2152,1.2184,1.2222,1.2198,1.221,1.2197,1.2226,1.2298,1.2197,1.2197,1.2216,1.2375,1.2395,1.2409,1.2283,1.2285,1.2287,1.2375,0,1.2095,1.2157,1.2141,1.2204,1.2231,1.2199,1.2231,1.224,1.2237,1.226,1.2257,1.2285,1.2251,1.2258,1.2285,1.2283,1.233,1.2277,1.2313,1.2315,1.2311,1.2424,1.2445,1.2527,1.2386,1.2387,1.2389,0,1.2202,1.2218,1.2284,1.2287,1.2298,1.2328,1.2347,1.2369,1.2379,1.2375,1.2388,1.237,1.2408,1.2365,1.2418,1.2382,1.2396,1.2398,1.24,1.2404,1.2356,1.243,1.2553,1.2566,1.2406,1.2405,1.2404,0,1.2285,1.2324,1.2368,1.2375,1.238,1.2401,1.2405,1.2412,1.2426,1.2444,1.2453,1.2475,1.2487,1.2505,1.2493,1.2463,1.2548,1.2504,1.2546,1.2547,1.2566,1.2565,1.2693,1.2574,1.2574,1.2574,1.2574,0,1.2383,1.2424,1.2405,1.2432,1.2478,1.2459,1.2505,1.2505,1.2512,1.2539,1.2513,1.254,1.2522,1.2548,1.2539,1.2584,1.259,1.2588,1.2585,1.259,1.2591,1.26,1.2594,1.2577,1.2576,1.2576,1.2575,0,1.2483,1.2472,1.2518,1.2519,1.252,1.2554,1.2555,1.2581,1.2575,1.2611,1.2618,1.261,1.2639,1.2628,1.2659,1.2653,1.2711,1.2701,1.2707,1.2705,1.2747,1.2743,1.2885,1.2903,1.2773,1.2775,1.2776,0,1.2546,1.2577,1.2581,1.2597,1.2602,1.2628,1.2642,1.2625,1.2641,1.2655,1.2679,1.2705,1.2725,1.2773,1.2771,1.2794,1.2784,1.2833,1.2788,1.2792,1.2786,1.2784,1.2787,1.2842,1.2843,1.2844,1.2845,0,1.2659,1.2651,1.2673,1.2692,1.271,1.2725,1.2737,1.2752,1.2736,1.2756,1.2784,1.2799,1.283,1.2857,1.2878,1.2883,1.2862,1.2859,1.287,1.2876,1.2879,1.2878,1.2732,1.2856,1.2855,1.2854,1.2854,1.2853,1.2742,1.2768,1.2775,1.28,1.2807,1.282,1.2844,1.2842,1.2865,1.2888,1.2876,1.291,1.2919,1.2945,1.2953,1.2979,1.2961,1.2977,1.2981,1.2985,1.299,1.2874,1.2983,1.2983,1.2983,1.2982,1.2982,0,1.2854,1.2856,1.2879,1.2897,1.2917,1.2894,1.2907,1.2926,1.2955,1.2965,1.2985,1.3018,1.3044,1.3043,1.3067,1.3089,1.308,1.3096,1.3094,1.3096,1.3006,1.2994,1.3102,1.3102,1.3102,1.3102,1.3102,1.3102,1.2914,1.2957,1.2951,1.2998,1.3001,1.3032,1.3042,1.3053,1.3061,1.3099,1.312,1.3119,1.3125,1.315,1.3173,1.3172,1.3182,1.3202,1.3198,1.3114,1.3102,1.309,1.3079,1.3204,1.3204,1.3285,1.3286,1.3287]},{"header":{"parameterUnit":"m.s-1","parameterCategory":1,"la1":30.2991,"la2":30.254,"lo1":-89.0895,"lo2":-89.0444,"dy":0.0017,"dx":0.0017,"nx":28,"ny":28,"refTime":"2025-12-27T09:00:00:Z","depth":0,"parameterNumber":3,"parameterNumberName":"V-component_of_WINDS"},"data":[0,0,0,0,0,0,0,0,0,0,0,0,0,0,0,0,0,0,0,0,0,0,0,0,0,0,0,0,0,0,0,0,0,0,0,0,0,0,0,0,0,0,0,0,0,0,0,0,0,0,0,0,0,0,0,0,0,0,1.5618,1.5619,0,1.5661,1.5662,1.5662,1.5645,1.5644,1.5643,1.5642,1.5684,1.5686,1.5688,0,0,0,0,0,0,0,0,0,0,0,0,0,1.5518,1.552,1.5618,1.5619,1.5619,1.5661,1.5662,1.5662,1.5645,1.5644,1.5642,1.5641,1.5683,1.5686,1.5688,0,0,0,0,0,0,0,0,0,0,0,0,0,1.5562,1.5521,1.5618,1.5616,1.5616,1.5661,1.5662,1.5663,1.5645,1.5644,1.5642,1.5641,1.5683,1.5686,1.5689,1.5738,0,0,1.5698,1.57,0,0,0,0,0,0,0,0,1.5559,1.5565,1.5615,1.5616,1.5616,1.5646,1.5642,1.5688,1.5646,1.5634,1.5642,1.564,1.5673,1.5676,1.5688,1.574,1.5742,1.5698,1.57,1.5702,1.5703,0,0,0,0,0,0,0,1.5556,1.5563,1.5635,1.5616,1.5617,1.5612,1.5616,1.5651,1.5661,1.5635,1.5634,1.5639,1.5672,1.5685,1.5689,1.5743,1.5698,1.5701,1.5703,1.5704,1.5838,1.584,0,0,0,0,0,0,1.5553,1.5561,1.5634,1.5636,1.5583,1.5615,1.562,1.5638,1.5661,1.5663,1.564,1.5638,1.568,1.5685,1.569,1.575,1.5702,1.5705,1.5706,1.5837,1.5839,1.5841,0,0,0,0,0,0,1.5551,1.556,1.5632,1.5598,1.5607,1.5618,1.5639,1.564,1.5652,1.5665,1.5667,1.5651,1.5679,1.5686,1.5727,1.5751,1.5706,1.5709,1.5835,1.5837,1.584,1.5871,0,0,0,0,0,0,1.5549,1.556,1.5579,1.5599,1.5609,1.5669,1.564,1.5642,1.5658,1.5655,1.5676,1.5678,1.5679,1.5722,1.573,1.5755,1.5711,1.5833,1.5836,1.5839,1.5868,1.5874,1.588,0,0,0,0,0,1.5545,1.5586,1.558,1.5589,1.5634,1.567,1.5676,1.5677,1.566,1.5679,1.5688,1.5677,1.5747,1.5727,1.5735,1.5761,1.5831,1.5835,1.5839,1.5865,1.5873,1.588,0,0,0,0,0,0,1.5568,1.5588,1.5582,1.5631,1.5649,1.5667,1.5692,1.5685,1.5708,1.5705,1.5704,1.5709,1.5751,1.576,1.5737,1.5811,1.5787,1.5792,1.5804,1.5811,1.5817,1.5814,1.5714,0,0,0,0,0,1.5578,1.5607,1.5623,1.5664,1.5673,1.5681,1.5697,1.5696,1.5715,1.5722,1.5733,1.5751,1.5777,1.5795,1.5819,1.5868,1.5873,1.5891,1.5897,1.5902,1.5907,1.5934,1.5942,1.5853,1.5853,1.5853,0,0,1.5601,1.5615,1.5633,1.5669,1.5683,1.5712,1.5688,1.5719,1.5741,1.5727,1.5767,1.5775,1.5795,1.5841,1.5861,1.5849,1.5932,1.5906,1.591,1.5913,1.5938,1.5947,1.5954,1.5856,1.5855,1.5855,0,0,1.5656,1.567,1.5706,1.5721,1.5743,1.5747,1.5756,1.5775,1.5781,1.5821,1.5811,1.5836,1.5881,1.5895,1.5909,1.5969,1.5961,1.5977,1.6009,1.6035,1.6042,1.6048,1.607,1.6078,1.5982,1.5982,1.5982,0,1.5681,1.5725,1.5725,1.5758,1.5774,1.5763,1.5799,1.5813,1.5841,1.5852,1.5839,1.5895,1.5908,1.5956,1.5971,1.5982,1.5992,1.5976,1.6041,1.6047,1.6053,1.6074,1.6083,1.5984,1.5984,1.5984,1.5984,0,1.5755,1.5786,1.5812,1.584,1.5859,1.5893,1.5898,1.5917,1.5914,1.592,1.5961,1.5975,1.6003,1.6014,1.6011,1.6062,1.6055,1.6041,1.6017,1.6064,1.6083,1.6092,1.5987,1.5986,1.5986,1.5985,0,0,1.5827,1.5855,1.5865,1.5878,1.5901,1.5924,1.5957,1.5985,1.6001,1.6021,1.6049,1.6087,1.6074,1.609,1.6088,1.6111,1.6159,1.6095,1.6095,1.6107,1.6216,1.6227,1.6236,1.6153,1.6154,1.6155,1.6215,0,1.5885,1.5945,1.5946,1.6,1.6028,1.6018,1.6047,1.6064,1.607,1.6094,1.61,1.6128,1.6109,1.6118,1.6141,1.6148,1.6181,1.6144,1.6178,1.618,1.6175,1.6247,1.6258,1.6314,1.6223,1.6224,1.6225,0,1.5961,1.5984,1.6041,1.606,1.6072,1.6098,1.6124,1.6147,1.6166,1.6169,1.6185,1.6181,1.6214,1.6188,1.6234,1.6209,1.6223,1.6228,1.6231,1.6235,1.6206,1.6253,1.6331,1.634,1.6237,1.6236,1.6235,0,1.6008,1.6053,1.6094,1.6105,1.6128,1.6147,1.6157,1.6174,1.6191,1.6212,1.6223,1.6248,1.6262,1.6281,1.6283,1.6264,1.6329,1.6303,1.6332,1.6332,1.6347,1.6346,1.643,1.6355,1.6355,1.6354,1.6354,0,1.6074,1.6109,1.6116,1.6141,1.618,1.618,1.6219,1.6228,1.6243,1.6269,1.6261,1.6285,1.6285,1.631,1.6311,1.6349,1.6355,1.6358,1.6359,1.636,1.636,1.637,1.6366,1.6357,1.6356,1.6356,1.6355,0,1.6134,1.614,1.6183,1.6201,1.6207,1.6235,1.625,1.6274,1.6279,1.6312,1.6319,1.6327,1.6356,1.6359,1.6392,1.6393,1.6439,1.6435,1.6433,1.6433,1.6462,1.646,1.6555,1.6568,1.6484,1.6485,1.6486,0,1.6176,1.6203,1.6224,1.6242,1.6253,1.6281,1.6298,1.6298,1.6316,1.6339,1.636,1.6388,1.641,1.6456,1.6465,1.649,1.6486,1.6518,1.649,1.6491,1.6488,1.6486,1.6489,1.6524,1.6525,1.6526,1.6526,0,1.6249,1.6251,1.6276,1.6302,1.6323,1.6344,1.6363,1.6377,1.638,1.64,1.643,1.6447,1.6481,1.6509,1.6534,1.6543,1.6536,1.6535,1.6543,1.6545,1.6543,1.6545,1.6449,1.6533,1.6532,1.6532,1.6531,1.6531,1.6302,1.6326,1.6345,1.6373,1.6388,1.6406,1.6429,1.6438,1.6463,1.6491,1.6489,1.6522,1.6539,1.6572,1.6583,1.6608,1.6598,1.6609,1.6612,1.6616,1.6619,1.6539,1.6613,1.6612,1.6612,1.6612,1.6612,0,1.6376,1.6388,1.6414,1.6441,1.6463,1.6454,1.6475,1.6494,1.6523,1.654,1.6563,1.6596,1.6623,1.6633,1.6659,1.6677,1.6674,1.6684,1.6683,1.6686,1.6627,1.6617,1.6686,1.6686,1.6686,1.6686,1.6686,1.6686,1.6417,1.6458,1.6461,1.6508,1.6519,1.6552,1.6565,1.6581,1.6595,1.6633,1.6656,1.6663,1.6677,1.6704,1.6728,1.673,1.674,1.6752,1.6753,1.6697,1.669,1.6683,1.6674,1.6754,1.6754,1.681,1.6811,1.6811]}]]